Regional Weather Roundup
Issued by NWS

Home | Current Version | Previous Version | Graphics & Text | Print | Product List | Glossary Off
Versions: 1 2 3 4 5 6 7 8 9 10 11 12 13 14 15 16 17 18 19 20 21 22 23 24 25 26 27 28 29 30 31 32 33 34 35 36 37 38 39 40 41 42 43 44 45 46 47 48 49 50

656
ASUS45 KBOU 220810
RWRCO

WEATHER ROUNDUP FOR COLORADO
NATIONAL WEATHER SERVICE DENVER/BOULDER CO
100 AM MST MON JAN 22 2018

NOTE: "FAIR" INDICATES FEW OR NO CLOUDS BELOW 12000 FEET WITH NO
SIGNIFICANT WEATHER AND/OR OBSTRUCTIONS TO VISIBILITY.

COZ001>005-013-030-031-220900-
...NORTHWEST COLORADO...

CITY           SKY/WX    TMP DP  RH WIND       PRES   REMARKS
CRAIG          MOCLDY     6   2  83 CALM      30.16F
HAYDEN         LGT SNOW N/A N/A N/A CALM      30.15F
MEEKER         FAIR       4   2  91 CALM      30.16R
RABBIT EARS PA LGT SNOW   3   0  85 W13G23    29.93S VSB 3/4 WCI -14
STEAMBOAT SPGS CLOUDY    12  10  90 CALM      30.12S
WALDEN         FAIR       0  -6  78 SE7       30.03S WCI -13
$$

COZ006>008-011-220900-
...WEST CENTRAL VALLEYS...

CITY           SKY/WX    TMP DP  RH WIND       PRES   REMARKS
GRAND JUNCTION FAIR      11   7  84 E3        30.21S
MONTROSE       FAIR      18  12  77 S5        30.22S WCI  11
EAGLE          MOCLDY    10   7  87 SE7       30.16R WCI  -1
RIFLE          FAIR      22  15  75 NW6       30.19S WCI  14
DELTA          FAIR      22  13  69 NE7       30.21R WCI  13
NUCLA          CLOUDY    14   9  79 SE10      30.24S WCI   1
$$

COZ017>023-064>068-220900-
...SOUTHWEST COLORADO...

CITY           SKY/WX    TMP DP  RH WIND       PRES   REMARKS
DURANGO        FAIR      12   8  84 E7        30.05R WCI   1
CORTEZ         FAIR       9   6  88 E3        30.18R
PAGOSA SPRINGS CLOUDY    12  10  92 CALM      30.03S
TELLURIDE      CLOUDY    11   6  81 W7        30.10R WCI   1
WOLF CREEK PAS FAIR       1  -6  71 NW3       29.93S
$$

COZ009-010-012-014-032>034-037-058>063-220900-
...CENTRAL COLORADO...

CITY           SKY/WX    TMP DP  RH WIND       PRES   REMARKS
ASPEN          CLOUDY    15  10  80 N3        30.08R
BUENA VISTA    FAIR      16   2  54 NW21G28   29.94S WCI  -2
COPPER MTN     NOT AVBL
BERTHOUD PASS  HVY SNOW  -6 -17  59 MISG      29.76F VSB 1/4
COTTONWOOD PAS   N/A     16   3  57 NW9G23    29.86F WCI   4
GUNNISON       FAIR       9   2  73 CALM      30.07R
KREMMLING      CLOUDY    10   5  79 S3        30.09R
LEADVILLE      CLOUDY     3  -2  79 NW12G21   29.93R WCI -13
MONARCH PASS   CLOUDY     0  -6  78 W28       29.93S WCI -26
SALIDA         FAIR      17   4  58 NW6       30.04R WCI   8
SUNLIGHT       CLOUDY   N/A N/A N/A MISG      30.02F
WILKERSON PASS FAIR       3  -4  72 N16G31    29.80S WCI -16
$$

COZ069>075-220900-
...SAN LUIS VALLEY/SANGRE DE CRISTO MOUNTAINS...

CITY           SKY/WX    TMP DP  RH WIND       PRES   REMARKS
ALAMOSA        FAIR       8   0  69 N8        29.97R WCI  -4
DEL NORTE      FAIR      16   0  49 W12       29.98R WCI   2
LA VETA PASS   FAIR       5   1  85 SW18        N/A  WCI -15
SAGUACHE       FAIR      18   5  57 NW24G32   29.98R WCI   0
$$

COZ035-036-038>040-220900-
...NORTHERN COLORADO FRONT RANGE...

CITY           SKY/WX    TMP DP  RH WIND       PRES   REMARKS
DENVER INTL AP CLOUDY    24  13  62 NW9       29.93S WCI  14
DMNS CITY PARK NOT AVBL
AURORA         MOCLDY    23  15  70 W8        29.93S WCI  14
FRONT RANGE AP CLOUDY    26  16  66 N13       29.93S WCI  14
ERIE MUNI ARPT FAIR      21  16  81 SW3       30.01S
BOULDER MUN AP FAIR      27  19  74 SW5       29.94S WCI  21
CENTENNIAL     CLOUDY    23  14  68 NW7       29.93S WCI  15
BROOMFIELD     FAIR      23  14  68 W3        29.94S
FORT COLLINS   FAIR      23  14  68 NE8       29.95S WCI  14
LONGMONT       FAIR      17  12  80 W5        29.97S WCI  10
$$

COZ041-046-047-076>085-087-088-220900-
...PIKES PEAK/PALMER DIVIDE AND SOUTHERN FOOTHILLS...

CITY           SKY/WX    TMP DP  RH WIND       PRES   REMARKS
COLO. SPRINGS  FAIR      21  13  71 NW14      29.92S WCI   8
A. F. ACADEMY  FAIR      17  11  75 N13       29.89R WCI   4
SCHRIEVER AFB  FAIR      19  12  73 NW7       29.92R WCI  10
CHEYENNE MTN   FAIR      19   8  64 CALM      29.84R
ELLICOTT         N/A    N/A N/A N/A NW13        N/A
FALCON         CLOUDY    18  12  78 NW13      29.89S WCI   5
FORT CARSON    FAIR      19   9  66 CALM      29.92S
LIMON          LGT SNOW  21  19  92 NW32G44   29.86S VSB 1   WCI   2
MONUMENT HILL  CLOUDY    16  14  93 NW15      29.89S WCI   1
CANON CITY     FAIR      21  14  73 NW14      29.95S WCI   8
WALSENBURG     FAIR      10   7  85 W3        29.94S
TRINIDAD       FAIR      16  13  88 W8        29.94S WCI   5
$$

COZ042>045-048>051-090-091-220900-
...NORTHEAST COLORADO...

CITY           SKY/WX    TMP DP  RH WIND       PRES   REMARKS
GREELEY ARPT   FAIR      23  13  65 N18       29.95F WCI   9
AKRON          CLOUDY    23  21  92 NW31G41   29.87S FOG     WCI   5
BURLINGTON     FOG       26  24  92 NW32G51   29.78S VSB 3/4 WCI   9
WRAY           CLOUDY    28  28 100 NW28G35   29.83S WCI  13
YUMA           LGT SNOW  25  23  93 NW23G32   29.86S WCI  10
STERLING       FAIR      27  23  86 NW26      29.89S FOG     WCI  11
HOLYOKE        CLOUDY    30  28  93 N29G36    29.85R WCI  15
FORT MORGAN    FAIR      25  15  66 NW25G31   29.93S WCI   9
$$

COZ086-089-092>099-220900-
...SOUTHEAST COLORADO...

CITY           SKY/WX    TMP DP  RH WIND       PRES   REMARKS
PUEBLO         FAIR      28  14  55 NW12G22   29.96R WCI  18
LA JUNTA       FAIR      28  16  60 NW20      29.94R WCI  15
LAMAR          FAIR      26  19  74 NW22      29.88R WCI  12
SPRINGFIELD      N/A     25  20  81 NW30G40   29.83S WCI   8
$$




USA.gov is the U.S. government's official web portal to all federal, state and local government web resources and services.